IRIDIUM 63 [-] (25286 NORAD) Tracking and Keplerian Element Data

This shows tracking and keplerian element data for the satellite.

Feedback or suggestion? Click here.




ElementValue
Catalog25286
NameIRIDIUM 63 [-]
Epoch Orbit6147
Epoch Day198.68236588
Epoch Year2018
RAAN59.0329
Inclination86.3972
Eccentricity0.000202
Argument of Perigee90.1952
Mean Anonmoly331.8792
Mean Motion14.3473258
Decay Rate8.5E-07
L11 25286U 98021B 18198.68236588 .00000085 00000-0 23090-4 0 9997
L22 25286 86.3972 59.0329 0002020 90.1952 331.8792 14.34732580 61476

Live tracking and technical data element details for IRIDIUM 63 [-] (NORAD 25286). IRIDIUM 63 [-] can be tracked NOW for your location showing map with azimuth and elevation plus other details from your city location.

Track the satellite on the map from your city or location and see movement details for azimuth, elevation, latitude, longitude, range, height, and movement on the map or in text.







IsCatalogInMostPopularTable: catalog: 25286, numindb: 32
Update: records affected: 1



GetName: 25286 IRIDIUM 63 [-]

Hit Count: updated at: Fri, 20 Jul 2018 06:53:36 GMT